Year,Month,Day,Hour,Minute,Value (Times are PST for temperature in C)
2019,07,27,00,00,17.10
2019,07,27,00,01,17.10
2019,07,27,00,02,17.10
2019,07,27,00,03,17.00
2019,07,27,00,04,17.00
2019,07,27,00,05,17.00
2019,07,27,00,06,17.00
2019,07,27,00,07,16.90
2019,07,27,00,08,16.90
2019,07,27,00,09,16.90
2019,07,27,00,10,16.80
2019,07,27,00,11,16.80
2019,07,27,00,12,16.80
2019,07,27,00,13,16.80
2019,07,27,00,14,16.70
2019,07,27,00,15,16.70
2019,07,27,00,16,16.60
2019,07,27,00,17,16.60
2019,07,27,00,18,16.60
2019,07,27,00,19,16.50
2019,07,27,00,20,16.50
2019,07,27,00,21,16.50
2019,07,27,00,22,16.40
2019,07,27,00,23,16.40
2019,07,27,00,24,16.50
2019,07,27,00,25,16.50
2019,07,27,00,26,16.50
2019,07,27,00,27,16.50
2019,07,27,00,28,16.50
2019,07,27,00,29,16.50
2019,07,27,00,30,16.50
2019,07,27,00,31,16.50
2019,07,27,00,32,16.50
2019,07,27,00,33,16.50
2019,07,27,00,34,16.50
2019,07,27,00,35,16.50
2019,07,27,00,36,16.40
2019,07,27,00,37,16.40
2019,07,27,00,38,16.40
2019,07,27,00,39,16.40
2019,07,27,00,40,16.40
2019,07,27,00,41,16.30
2019,07,27,00,42,16.30
2019,07,27,00,43,16.30
2019,07,27,00,44,16.20
2019,07,27,00,45,16.20
2019,07,27,00,46,16.20
2019,07,27,00,47,16.20
2019,07,27,00,48,16.10
2019,07,27,00,49,16.10
2019,07,27,00,50,16.10
2019,07,27,00,51,16.10
2019,07,27,00,52,16.00
2019,07,27,00,53,16.00
2019,07,27,00,54,15.90
2019,07,27,00,55,15.90
2019,07,27,00,56,15.90
2019,07,27,00,57,15.90
2019,07,27,00,58,15.90
2019,07,27,00,59,15.90
2019,07,27,01,00,16.00
2019,07,27,01,01,16.10
2019,07,27,01,02,16.10
2019,07,27,01,03,16.20
2019,07,27,01,04,16.20
2019,07,27,01,05,16.30
2019,07,27,01,06,16.30
2019,07,27,01,07,16.30
2019,07,27,01,08,16.30
2019,07,27,01,09,16.30
2019,07,27,01,10,16.30
2019,07,27,01,11,16.30
2019,07,27,01,12,16.40
2019,07,27,01,13,16.50
2019,07,27,01,14,16.50
2019,07,27,01,15,16.50
2019,07,27,01,16,16.60
2019,07,27,01,17,16.60
2019,07,27,01,18,16.60
2019,07,27,01,19,16.60
2019,07,27,01,20,16.60
2019,07,27,01,21,16.60
2019,07,27,01,22,16.60
2019,07,27,01,23,16.60
2019,07,27,01,24,16.60
2019,07,27,01,25,16.60
2019,07,27,01,26,16.70
2019,07,27,01,27,16.70
2019,07,27,01,28,16.70
2019,07,27,01,29,16.70
2019,07,27,01,30,16.70
2019,07,27,01,31,16.70
2019,07,27,01,32,16.70
2019,07,27,01,33,16.70
2019,07,27,01,34,16.70
2019,07,27,01,35,16.60
2019,07,27,01,36,16.60
2019,07,27,01,37,16.50
2019,07,27,01,38,16.40
2019,07,27,01,39,16.30
2019,07,27,01,40,16.30
2019,07,27,01,41,16.20
2019,07,27,01,42,16.20
2019,07,27,01,43,16.10
2019,07,27,01,44,16.10
2019,07,27,01,45,16.00
2019,07,27,01,46,16.00
2019,07,27,01,47,15.90
2019,07,27,01,48,15.90
2019,07,27,01,49,15.80
2019,07,27,01,50,15.80
2019,07,27,01,51,15.70
2019,07,27,01,52,15.70
2019,07,27,01,53,15.70
2019,07,27,01,54,15.60
2019,07,27,01,55,15.60
2019,07,27,01,56,15.60
2019,07,27,01,57,15.60
2019,07,27,01,58,15.50
2019,07,27,01,59,15.50
2019,07,27,02,00,15.50
2019,07,27,02,01,15.40
2019,07,27,02,02,15.30
2019,07,27,02,03,15.30
2019,07,27,02,04,15.30
2019,07,27,02,05,15.20
2019,07,27,02,06,15.20
2019,07,27,02,07,15.20
2019,07,27,02,08,15.20
2019,07,27,02,09,15.20
2019,07,27,02,10,15.20
2019,07,27,02,11,15.20
2019,07,27,02,12,15.10
2019,07,27,02,13,15.10
2019,07,27,02,14,15.10
2019,07,27,02,15,15.10
2019,07,27,02,16,15.10
2019,07,27,02,17,15.10
2019,07,27,02,18,15.10
2019,07,27,02,19,15.10
2019,07,27,02,20,15.10
2019,07,27,02,21,15.10
2019,07,27,02,22,15.00
2019,07,27,02,23,14.90
2019,07,27,02,24,14.90
2019,07,27,02,25,14.90
2019,07,27,02,26,14.90
2019,07,27,02,27,14.90
2019,07,27,02,28,14.90
2019,07,27,02,29,14.90
2019,07,27,02,30,14.90
2019,07,27,02,31,14.90
2019,07,27,02,32,14.80
2019,07,27,02,33,14.80
2019,07,27,02,34,14.80
2019,07,27,02,35,14.80
2019,07,27,02,36,14.80
2019,07,27,02,37,14.80
2019,07,27,02,38,14.80
2019,07,27,02,39,14.80
2019,07,27,02,40,14.80
2019,07,27,02,41,14.80
2019,07,27,02,42,14.80
2019,07,27,02,43,14.80
2019,07,27,02,44,14.80
2019,07,27,02,45,14.80
2019,07,27,02,46,14.80
2019,07,27,02,47,14.90
2019,07,27,02,48,14.90
2019,07,27,02,49,14.90
2019,07,27,02,50,15.00
2019,07,27,02,51,15.10
2019,07,27,02,52,15.20
2019,07,27,02,53,15.30
2019,07,27,02,54,15.30
2019,07,27,02,55,15.30
2019,07,27,02,56,15.40
2019,07,27,02,57,15.40
2019,07,27,02,58,15.40
2019,07,27,02,59,15.40
2019,07,27,03,00,15.30
2019,07,27,03,01,15.20
2019,07,27,03,02,15.10
2019,07,27,03,03,15.10
2019,07,27,03,04,15.10
2019,07,27,03,05,15.00
2019,07,27,03,06,15.00
2019,07,27,03,07,14.90
2019,07,27,03,08,14.90
2019,07,27,03,09,14.90
2019,07,27,03,10,14.90
2019,07,27,03,11,14.80
2019,07,27,03,12,14.80
2019,07,27,03,13,14.70
2019,07,27,03,14,14.70
2019,07,27,03,15,14.70
2019,07,27,03,16,14.70
2019,07,27,03,17,14.70
2019,07,27,03,18,14.60
2019,07,27,03,19,14.70
2019,07,27,03,20,14.70
2019,07,27,03,21,14.70
2019,07,27,03,22,14.70
2019,07,27,03,23,14.60
2019,07,27,03,24,14.60
2019,07,27,03,25,14.50
2019,07,27,03,26,14.40
2019,07,27,03,27,14.40
2019,07,27,03,28,14.30
2019,07,27,03,29,14.30
2019,07,27,03,30,14.20
2019,07,27,03,31,14.10
2019,07,27,03,32,14.10
2019,07,27,03,33,14.10
2019,07,27,03,34,14.10
2019,07,27,03,35,14.10
2019,07,27,03,36,14.20
2019,07,27,03,37,14.20
2019,07,27,03,38,14.20
2019,07,27,03,39,14.10
2019,07,27,03,40,14.10
2019,07,27,03,41,14.10
2019,07,27,03,42,14.10
2019,07,27,03,43,14.10
2019,07,27,03,44,14.00
2019,07,27,03,45,13.90
2019,07,27,03,46,13.90
2019,07,27,03,47,13.90
2019,07,27,03,48,13.90
2019,07,27,03,49,13.80
2019,07,27,03,50,13.80
2019,07,27,03,51,13.80
2019,07,27,03,52,13.80
2019,07,27,03,53,13.80
2019,07,27,03,54,13.80
2019,07,27,03,55,13.80
2019,07,27,03,56,13.80
2019,07,27,03,57,13.70
2019,07,27,03,58,13.70
2019,07,27,03,59,13.70
2019,07,27,04,00,13.80
2019,07,27,04,01,13.80
2019,07,27,04,02,13.90
2019,07,27,04,03,14.00
2019,07,27,04,04,14.00
2019,07,27,04,05,14.10
2019,07,27,04,06,14.10
2019,07,27,04,07,14.20
2019,07,27,04,08,14.20
2019,07,27,04,09,14.20
2019,07,27,04,10,14.20
2019,07,27,04,11,14.20
2019,07,27,04,12,14.20
2019,07,27,04,13,14.20
2019,07,27,04,14,14.20
2019,07,27,04,15,14.10
2019,07,27,04,16,14.10
2019,07,27,04,17,14.00
2019,07,27,04,18,14.00
2019,07,27,04,19,13.90
2019,07,27,04,20,13.90
2019,07,27,04,21,13.80
2019,07,27,04,22,13.80
2019,07,27,04,23,13.80
2019,07,27,04,24,13.80
2019,07,27,04,25,13.80
2019,07,27,04,26,13.70
2019,07,27,04,27,13.70
2019,07,27,04,28,13.70
2019,07,27,04,29,13.70
2019,07,27,04,30,13.60
2019,07,27,04,31,13.60
2019,07,27,04,32,13.60
2019,07,27,04,33,13.60
2019,07,27,04,34,13.50
2019,07,27,04,35,13.40
2019,07,27,04,36,13.40
2019,07,27,04,37,13.30
2019,07,27,04,38,13.30
2019,07,27,04,39,13.30
2019,07,27,04,40,13.30
2019,07,27,04,41,13.30
2019,07,27,04,42,13.30
2019,07,27,04,43,13.30
2019,07,27,04,44,13.30
2019,07,27,04,45,13.30
2019,07,27,04,46,13.30
2019,07,27,04,47,13.30
2019,07,27,04,48,13.30
2019,07,27,04,49,13.40
2019,07,27,04,50,13.50
2019,07,27,04,51,13.50
2019,07,27,04,52,13.60
2019,07,27,04,53,13.70
2019,07,27,04,54,13.70
2019,07,27,04,55,13.80
2019,07,27,04,56,13.80
2019,07,27,04,57,13.80
2019,07,27,04,58,13.90
2019,07,27,04,59,13.90
2019,07,27,05,00,14.00
2019,07,27,05,01,14.10
2019,07,27,05,02,14.20
2019,07,27,05,03,14.30
2019,07,27,05,04,14.30
2019,07,27,05,05,14.30
2019,07,27,05,06,14.20
2019,07,27,05,07,14.20
2019,07,27,05,08,14.20
2019,07,27,05,09,14.20
2019,07,27,05,10,14.10
2019,07,27,05,11,14.00
2019,07,27,05,12,13.90
2019,07,27,05,13,13.80
2019,07,27,05,14,13.70
2019,07,27,05,15,13.70
2019,07,27,05,16,13.60
2019,07,27,05,17,13.60
2019,07,27,05,18,13.60
2019,07,27,05,19,13.50
2019,07,27,05,20,13.50
2019,07,27,05,21,13.50
2019,07,27,05,22,13.50
2019,07,27,05,23,13.50
2019,07,27,05,24,13.50
2019,07,27,05,25,13.40
2019,07,27,05,26,13.50
2019,07,27,05,27,13.40
2019,07,27,05,28,13.40
2019,07,27,05,29,13.30
2019,07,27,05,30,13.30
2019,07,27,05,31,13.30
2019,07,27,05,32,13.30
2019,07,27,05,33,13.20
2019,07,27,05,34,13.20
2019,07,27,05,35,13.20
2019,07,27,05,36,13.20
2019,07,27,05,37,13.20
2019,07,27,05,38,13.20
2019,07,27,05,39,13.20
2019,07,27,05,40,13.20
2019,07,27,05,41,13.10
2019,07,27,05,42,13.10
2019,07,27,05,43,13.10
2019,07,27,05,44,13.10
2019,07,27,05,45,13.10
2019,07,27,05,46,13.10
2019,07,27,05,47,13.00
2019,07,27,05,48,13.00
2019,07,27,05,49,13.00
2019,07,27,05,50,13.00
2019,07,27,05,51,13.00
2019,07,27,05,52,13.00
2019,07,27,05,53,13.00
2019,07,27,05,54,13.00
2019,07,27,05,55,13.00
2019,07,27,05,56,12.90
2019,07,27,05,57,12.90
2019,07,27,05,58,12.80
2019,07,27,05,59,12.80
2019,07,27,06,00,12.70
2019,07,27,06,01,12.70
2019,07,27,06,02,12.60
2019,07,27,06,03,12.60
2019,07,27,06,04,12.60
2019,07,27,06,05,12.60
2019,07,27,06,06,12.60
2019,07,27,06,07,12.60
2019,07,27,06,08,12.50
2019,07,27,06,09,12.50
2019,07,27,06,10,12.50
2019,07,27,06,11,12.50
2019,07,27,06,12,12.50
2019,07,27,06,13,12.60
2019,07,27,06,14,12.60
2019,07,27,06,15,12.60
2019,07,27,06,16,12.60
2019,07,27,06,17,12.70
2019,07,27,06,18,12.70
2019,07,27,06,19,12.70
2019,07,27,06,20,12.70
2019,07,27,06,21,12.70
2019,07,27,06,22,12.70
2019,07,27,06,23,12.80
2019,07,27,06,24,12.90
2019,07,27,06,25,12.90
2019,07,27,06,26,12.80
2019,07,27,06,27,12.80
2019,07,27,06,28,12.80
2019,07,27,06,29,12.70
2019,07,27,06,30,12.70
2019,07,27,06,31,12.80
2019,07,27,06,32,12.80
2019,07,27,06,33,12.80
2019,07,27,06,34,12.70
2019,07,27,06,35,12.70
2019,07,27,06,36,12.80
2019,07,27,06,37,12.80
2019,07,27,06,38,12.80
2019,07,27,06,39,12.90
2019,07,27,06,40,13.00
2019,07,27,06,41,13.00
2019,07,27,06,42,13.10
2019,07,27,06,43,13.10
2019,07,27,06,44,13.10
2019,07,27,06,45,13.10
2019,07,27,06,46,13.10
2019,07,27,06,47,13.10
2019,07,27,06,48,13.10
2019,07,27,06,49,13.00
2019,07,27,06,50,13.00
2019,07,27,06,51,13.00
2019,07,27,06,52,13.00
2019,07,27,06,53,13.00
2019,07,27,06,54,13.00
2019,07,27,06,55,13.10
2019,07,27,06,56,13.10
2019,07,27,06,57,13.10
2019,07,27,06,58,13.10
2019,07,27,06,59,13.10
2019,07,27,07,00,13.10
2019,07,27,07,01,13.10
2019,07,27,07,02,13.10
2019,07,27,07,03,13.10
2019,07,27,07,04,13.10
2019,07,27,07,05,13.10
2019,07,27,07,06,13.20
2019,07,27,07,07,13.20
2019,07,27,07,08,13.20
2019,07,27,07,09,13.30
2019,07,27,07,10,13.40
2019,07,27,07,11,13.40
2019,07,27,07,12,13.50
2019,07,27,07,13,13.50
2019,07,27,07,14,13.60
2019,07,27,07,15,13.60
2019,07,27,07,16,13.60
2019,07,27,07,17,13.70
2019,07,27,07,18,13.70
2019,07,27,07,19,13.70
2019,07,27,07,20,13.80
2019,07,27,07,21,13.80
2019,07,27,07,22,13.80
2019,07,27,07,23,13.90
2019,07,27,07,24,13.90
2019,07,27,07,25,14.00
2019,07,27,07,26,14.00
2019,07,27,07,27,14.10
2019,07,27,07,28,14.20
2019,07,27,07,29,14.20
2019,07,27,07,30,14.30
2019,07,27,07,31,14.40
2019,07,27,07,32,14.50
2019,07,27,07,33,14.70
2019,07,27,07,34,14.80
2019,07,27,07,35,14.90
2019,07,27,07,36,15.00
2019,07,27,07,37,15.10
2019,07,27,07,38,15.20
2019,07,27,07,39,15.30
2019,07,27,07,40,15.30
2019,07,27,07,41,15.40
2019,07,27,07,42,15.50
2019,07,27,07,43,15.50
2019,07,27,07,44,15.60
2019,07,27,07,45,15.60
2019,07,27,07,46,15.70
2019,07,27,07,47,15.80
2019,07,27,07,48,15.80
2019,07,27,07,49,15.90
2019,07,27,07,50,16.00
2019,07,27,07,51,16.10
2019,07,27,07,52,16.10
2019,07,27,07,53,16.20
2019,07,27,07,54,16.20
2019,07,27,07,55,16.20
2019,07,27,07,56,16.30
2019,07,27,07,57,16.30
2019,07,27,07,58,16.30
2019,07,27,07,59,16.30
2019,07,27,08,00,16.30
2019,07,27,08,01,16.30
2019,07,27,08,02,16.30
2019,07,27,08,03,16.30
2019,07,27,08,04,16.30
2019,07,27,08,05,16.30
2019,07,27,08,06,16.40
2019,07,27,08,07,16.50
2019,07,27,08,08,16.50
2019,07,27,08,09,16.60
2019,07,27,08,10,16.60
2019,07,27,08,11,16.70
2019,07,27,08,12,16.70
2019,07,27,08,13,16.80
2019,07,27,08,14,16.80
2019,07,27,08,15,16.80
2019,07,27,08,16,16.80
2019,07,27,08,17,16.90
2019,07,27,08,18,16.90
2019,07,27,08,19,16.90
2019,07,27,08,20,16.90
2019,07,27,08,21,16.90
2019,07,27,08,22,16.90
2019,07,27,08,23,17.00
2019,07,27,08,24,17.00
2019,07,27,08,25,17.00
2019,07,27,08,26,17.10
2019,07,27,08,27,17.10
2019,07,27,08,28,17.10
2019,07,27,08,29,17.20
2019,07,27,08,30,17.30
2019,07,27,08,31,17.30
2019,07,27,08,32,17.30
2019,07,27,08,33,17.30
2019,07,27,08,34,17.40
2019,07,27,08,35,17.40
2019,07,27,08,36,17.50
2019,07,27,08,37,17.50
2019,07,27,08,38,17.60
2019,07,27,08,39,17.70
2019,07,27,08,40,17.70
2019,07,27,08,41,17.80
2019,07,27,08,42,17.80
2019,07,27,08,43,17.80
2019,07,27,08,44,17.70
2019,07,27,08,45,17.70
2019,07,27,08,46,17.70
2019,07,27,08,47,17.80
2019,07,27,08,48,17.80
2019,07,27,08,49,17.80
2019,07,27,08,50,17.90
2019,07,27,08,51,17.90
2019,07,27,08,52,17.90
2019,07,27,08,53,18.00
2019,07,27,08,54,18.00
2019,07,27,08,55,18.10
2019,07,27,08,56,18.20
2019,07,27,08,57,18.20
2019,07,27,08,58,18.30
2019,07,27,08,59,18.30
2019,07,27,09,00,18.30
2019,07,27,09,01,18.30
2019,07,27,09,02,18.30
2019,07,27,09,03,18.30
2019,07,27,09,04,18.30
2019,07,27,09,05,18.40
2019,07,27,09,06,18.50
2019,07,27,09,07,18.50
2019,07,27,09,08,18.50
2019,07,27,09,09,18.50
2019,07,27,09,10,18.50
2019,07,27,09,11,18.60
2019,07,27,09,12,18.60
2019,07,27,09,13,18.60
2019,07,27,09,14,18.70
2019,07,27,09,15,18.70
2019,07,27,09,16,18.70
2019,07,27,09,17,18.80
2019,07,27,09,18,18.80
2019,07,27,09,19,18.80
2019,07,27,09,20,18.80
2019,07,27,09,21,18.80
2019,07,27,09,22,18.80
2019,07,27,09,23,18.70
2019,07,27,09,24,18.60
2019,07,27,09,25,18.60
2019,07,27,09,26,18.60
2019,07,27,09,27,18.60
2019,07,27,09,28,18.60
2019,07,27,09,29,18.60
2019,07,27,09,30,18.60
2019,07,27,09,31,18.60
2019,07,27,09,32,18.60
2019,07,27,09,33,18.60
2019,07,27,09,34,18.60
2019,07,27,09,35,18.60
2019,07,27,09,36,18.60
2019,07,27,09,37,18.70
2019,07,27,09,38,18.70
2019,07,27,09,39,18.80
2019,07,27,09,40,18.90
2019,07,27,09,41,19.00
2019,07,27,09,42,19.00
2019,07,27,09,43,19.00
2019,07,27,09,44,19.00
2019,07,27,09,45,19.00
2019,07,27,09,46,18.90
2019,07,27,09,47,18.90
2019,07,27,09,48,18.90
2019,07,27,09,49,18.90
2019,07,27,09,50,18.90
2019,07,27,09,51,19.00
2019,07,27,09,52,19.10
2019,07,27,09,53,19.10
2019,07,27,09,54,19.10
2019,07,27,09,55,19.00
2019,07,27,09,56,19.00
2019,07,27,09,57,19.10
2019,07,27,09,58,19.10
2019,07,27,09,59,19.10
2019,07,27,10,00,19.10
2019,07,27,10,01,19.10
2019,07,27,10,02,19.10
2019,07,27,10,03,19.10
2019,07,27,10,04,19.10
2019,07,27,10,05,19.10
2019,07,27,10,06,19.10
2019,07,27,10,07,19.10
2019,07,27,10,08,19.00
2019,07,27,10,09,18.90
2019,07,27,10,10,18.90
2019,07,27,10,11,18.90
2019,07,27,10,12,18.90
2019,07,27,10,13,18.80
2019,07,27,10,14,18.90
2019,07,27,10,15,18.90
2019,07,27,10,16,19.00
2019,07,27,10,17,19.00
2019,07,27,10,18,19.10
2019,07,27,10,19,19.10
2019,07,27,10,20,19.20
2019,07,27,10,21,19.30
2019,07,27,10,22,19.30
2019,07,27,10,23,19.40
2019,07,27,10,24,19.40
2019,07,27,10,25,19.40
2019,07,27,10,26,19.50
2019,07,27,10,27,19.60
2019,07,27,10,28,19.60
2019,07,27,10,29,19.60
2019,07,27,10,30,19.60
2019,07,27,10,31,19.70
2019,07,27,10,32,19.70
2019,07,27,10,33,19.80
2019,07,27,10,34,19.80
2019,07,27,10,35,19.90
2019,07,27,10,36,19.90
2019,07,27,10,37,20.00
2019,07,27,10,38,20.00
2019,07,27,10,39,20.20
2019,07,27,10,40,20.30
2019,07,27,10,41,20.40
2019,07,27,10,42,20.40
2019,07,27,10,43,20.40
2019,07,27,10,44,20.40
2019,07,27,10,45,20.40
2019,07,27,10,46,20.30
2019,07,27,10,47,20.30
2019,07,27,10,48,20.20
2019,07,27,10,49,20.10
2019,07,27,10,50,20.00
2019,07,27,10,51,20.00
2019,07,27,10,52,20.00
2019,07,27,10,53,19.90
2019,07,27,10,54,19.80
2019,07,27,10,55,19.70
2019,07,27,10,56,19.60
2019,07,27,10,57,19.50
2019,07,27,10,58,19.50
2019,07,27,10,59,19.50
2019,07,27,11,00,19.50
2019,07,27,11,01,19.50
2019,07,27,11,02,19.40
2019,07,27,11,03,19.40
2019,07,27,11,04,19.40
2019,07,27,11,05,19.40
2019,07,27,11,06,19.30
2019,07,27,11,07,19.30
2019,07,27,11,08,19.30
2019,07,27,11,09,19.30
2019,07,27,11,10,19.30
2019,07,27,11,11,19.20
2019,07,27,11,12,19.20
2019,07,27,11,13,19.20
2019,07,27,11,14,19.20
2019,07,27,11,15,19.10
2019,07,27,11,16,19.10
2019,07,27,11,17,19.10
2019,07,27,11,18,19.10
2019,07,27,11,19,19.10
2019,07,27,11,20,19.10
2019,07,27,11,21,19.10
2019,07,27,11,22,19.20
2019,07,27,11,23,19.20
2019,07,27,11,24,19.20
2019,07,27,11,25,19.30
2019,07,27,11,26,19.30
2019,07,27,11,27,19.30
2019,07,27,11,28,19.30
2019,07,27,11,29,19.30
2019,07,27,11,30,19.30
2019,07,27,11,31,19.40
2019,07,27,11,32,19.30
2019,07,27,11,33,19.30
2019,07,27,11,34,19.30
2019,07,27,11,35,19.30
2019,07,27,11,36,19.40
2019,07,27,11,37,19.40
2019,07,27,11,38,19.40
2019,07,27,11,39,19.50
2019,07,27,11,40,19.60
2019,07,27,11,41,19.70
2019,07,27,11,42,19.90
2019,07,27,11,43,20.00
2019,07,27,11,44,20.10
2019,07,27,11,45,20.20
2019,07,27,11,46,20.20
2019,07,27,11,47,20.20
2019,07,27,11,48,20.10
2019,07,27,11,49,20.00
2019,07,27,11,50,19.90
2019,07,27,11,51,19.90
2019,07,27,11,52,19.80
2019,07,27,11,53,19.70
2019,07,27,11,54,19.70
2019,07,27,11,55,19.60
2019,07,27,11,56,19.60
2019,07,27,11,57,19.60
2019,07,27,11,58,19.60
2019,07,27,11,59,19.70
2019,07,27,12,00,19.70
2019,07,27,12,01,19.70
2019,07,27,12,02,19.70
2019,07,27,12,03,19.70
2019,07,27,12,04,19.70
2019,07,27,12,05,19.70
2019,07,27,12,06,19.80
2019,07,27,12,07,19.80
2019,07,27,12,08,19.80
2019,07,27,12,09,19.80
2019,07,27,12,10,19.70
2019,07,27,12,11,19.70
2019,07,27,12,12,19.60
2019,07,27,12,13,19.60
2019,07,27,12,14,19.50
2019,07,27,12,15,19.50
2019,07,27,12,16,19.60
2019,07,27,12,17,19.60
2019,07,27,12,18,19.70
2019,07,27,12,19,19.70
2019,07,27,12,20,19.70
2019,07,27,12,21,19.80
2019,07,27,12,22,19.80
2019,07,27,12,23,19.80
2019,07,27,12,24,19.80
2019,07,27,12,25,19.80
2019,07,27,12,26,19.80
2019,07,27,12,27,19.70
2019,07,27,12,28,19.70
2019,07,27,12,29,19.70
2019,07,27,12,30,19.70
2019,07,27,12,31,19.80
2019,07,27,12,32,19.80
2019,07,27,12,33,19.80
2019,07,27,12,34,19.90
2019,07,27,12,35,19.80
2019,07,27,12,36,19.90
2019,07,27,12,37,19.90
2019,07,27,12,38,20.00
2019,07,27,12,39,20.00
2019,07,27,12,40,20.10
2019,07,27,12,41,20.10
2019,07,27,12,42,20.10
2019,07,27,12,43,20.10
2019,07,27,12,44,20.10
2019,07,27,12,45,20.10
2019,07,27,12,46,20.10
2019,07,27,12,47,20.10
2019,07,27,12,48,20.10
2019,07,27,12,49,20.10
2019,07,27,12,50,20.10
2019,07,27,12,51,20.10
2019,07,27,12,52,20.10
2019,07,27,12,53,20.20
2019,07,27,12,54,20.20
2019,07,27,12,55,20.10
2019,07,27,12,56,20.10
2019,07,27,12,57,20.10
2019,07,27,12,58,20.00
2019,07,27,12,59,20.00
2019,07,27,13,00,19.90
2019,07,27,13,01,19.90
2019,07,27,13,02,19.90
2019,07,27,13,03,19.90
2019,07,27,13,04,20.00
2019,07,27,13,05,20.00
2019,07,27,13,06,20.10
2019,07,27,13,07,20.10
2019,07,27,13,08,20.20
2019,07,27,13,09,20.20
2019,07,27,13,10,20.20
2019,07,27,13,11,20.20
2019,07,27,13,12,20.20
2019,07,27,13,13,20.20
2019,07,27,13,14,20.30
2019,07,27,13,15,20.30
2019,07,27,13,16,20.30
2019,07,27,13,17,20.30
2019,07,27,13,18,20.40
2019,07,27,13,19,20.40
2019,07,27,13,20,20.50
2019,07,27,13,21,20.50
2019,07,27,13,22,20.60
2019,07,27,13,23,20.60
2019,07,27,13,24,20.70
2019,07,27,13,25,20.70
2019,07,27,13,26,20.80
2019,07,27,13,27,20.80
2019,07,27,13,28,20.90
2019,07,27,13,29,20.90
2019,07,27,13,30,20.90
2019,07,27,13,31,21.00
2019,07,27,13,32,21.00
2019,07,27,13,33,21.10
2019,07,27,13,34,21.10
2019,07,27,13,35,21.10
2019,07,27,13,36,21.10
2019,07,27,13,37,21.10
2019,07,27,13,38,21.10
2019,07,27,13,39,21.20
2019,07,27,13,40,21.20
2019,07,27,13,41,21.30
2019,07,27,13,42,21.40
2019,07,27,13,43,21.50
2019,07,27,13,44,21.60
2019,07,27,13,45,21.70
2019,07,27,13,46,21.80
2019,07,27,13,47,21.80
2019,07,27,13,48,21.90
2019,07,27,13,49,21.90
2019,07,27,13,50,21.90
2019,07,27,13,51,21.90
2019,07,27,13,52,21.80
2019,07,27,13,53,21.70
2019,07,27,13,54,21.70
2019,07,27,13,55,21.60
2019,07,27,13,56,21.60
2019,07,27,13,57,21.60
2019,07,27,13,58,21.60
2019,07,27,13,59,21.50
2019,07,27,14,00,21.40
2019,07,27,14,01,21.30
2019,07,27,14,02,21.30
2019,07,27,14,03,21.20
2019,07,27,14,04,21.20
2019,07,27,14,05,21.20
2019,07,27,14,06,21.20
2019,07,27,14,07,21.10
2019,07,27,14,08,21.10
2019,07,27,14,09,21.10
2019,07,27,14,10,21.10
2019,07,27,14,11,21.10
2019,07,27,14,12,21.10
2019,07,27,14,13,21.10
2019,07,27,14,14,21.20
2019,07,27,14,15,21.10
2019,07,27,14,16,21.10
2019,07,27,14,17,21.10
2019,07,27,14,18,21.10
2019,07,27,14,19,21.10
2019,07,27,14,20,21.20
2019,07,27,14,21,21.20
2019,07,27,14,22,21.20
2019,07,27,14,23,21.20
2019,07,27,14,24,21.10
2019,07,27,14,25,21.10
2019,07,27,14,26,21.10
2019,07,27,14,27,21.10
2019,07,27,14,28,21.00
2019,07,27,14,29,21.00
2019,07,27,14,30,20.90
2019,07,27,14,31,20.80
2019,07,27,14,32,20.80
2019,07,27,14,33,20.80
2019,07,27,14,34,20.70
2019,07,27,14,35,20.70
2019,07,27,14,36,20.60
2019,07,27,14,37,20.60
2019,07,27,14,38,20.60
2019,07,27,14,39,20.50
2019,07,27,14,40,20.50
2019,07,27,14,41,20.40
2019,07,27,14,42,20.40
2019,07,27,14,43,20.40
2019,07,27,14,44,20.30
2019,07,27,14,45,20.30
2019,07,27,14,46,20.30
2019,07,27,14,47,20.30
2019,07,27,14,48,20.30
2019,07,27,14,49,20.30
2019,07,27,14,50,20.30
2019,07,27,14,51,20.30
2019,07,27,14,52,20.30
2019,07,27,14,53,20.30
2019,07,27,14,54,20.40
2019,07,27,14,55,20.40
2019,07,27,14,56,20.40
2019,07,27,14,57,20.40
2019,07,27,14,58,20.50
2019,07,27,14,59,20.50
2019,07,27,15,00,20.60
2019,07,27,15,01,20.60
2019,07,27,15,02,20.70
2019,07,27,15,03,20.70
2019,07,27,15,04,20.70
2019,07,27,15,05,20.60
2019,07,27,15,06,20.70
2019,07,27,15,07,20.70
2019,07,27,15,08,20.70
2019,07,27,15,09,20.70
2019,07,27,15,10,20.70
2019,07,27,15,11,20.70
2019,07,27,15,12,20.70
2019,07,27,15,13,20.70
2019,07,27,15,14,20.70
2019,07,27,15,15,20.70
2019,07,27,15,16,20.70
2019,07,27,15,17,20.70
2019,07,27,15,18,20.80
2019,07,27,15,19,20.80
2019,07,27,15,20,20.80
2019,07,27,15,21,20.90
2019,07,27,15,22,20.90
2019,07,27,15,23,20.90
2019,07,27,15,24,20.90
2019,07,27,15,25,20.90
2019,07,27,15,26,20.90
2019,07,27,15,27,20.90
2019,07,27,15,28,21.00
2019,07,27,15,29,21.10
2019,07,27,15,30,21.10
2019,07,27,15,31,21.20
2019,07,27,15,32,21.20
2019,07,27,15,33,21.20
2019,07,27,15,34,21.20
2019,07,27,15,35,21.20
2019,07,27,15,36,21.20
2019,07,27,15,37,21.20
2019,07,27,15,38,21.30
2019,07,27,15,39,21.40
2019,07,27,15,40,21.50
2019,07,27,15,41,21.50
2019,07,27,15,42,21.60
2019,07,27,15,43,21.60
2019,07,27,15,44,21.60
2019,07,27,15,45,21.70
2019,07,27,15,46,21.70
2019,07,27,15,47,21.70
2019,07,27,15,48,21.60
2019,07,27,15,49,21.60
2019,07,27,15,50,21.60
2019,07,27,15,51,21.60
2019,07,27,15,52,21.50
2019,07,27,15,53,21.50
2019,07,27,15,54,21.50
2019,07,27,15,55,21.50
2019,07,27,15,56,21.50
2019,07,27,15,57,21.50
2019,07,27,15,58,21.60
2019,07,27,15,59,21.70
2019,07,27,16,00,21.70
2019,07,27,16,01,21.70
2019,07,27,16,02,21.70
2019,07,27,16,03,21.70
2019,07,27,16,04,21.70
2019,07,27,16,05,21.70
2019,07,27,16,06,21.70
2019,07,27,16,07,21.80
2019,07,27,16,08,21.80
2019,07,27,16,09,21.80
2019,07,27,16,10,21.70
2019,07,27,16,11,21.70
2019,07,27,16,12,21.70
2019,07,27,16,13,21.70
2019,07,27,16,14,21.70
2019,07,27,16,15,21.60
2019,07,27,16,16,21.60
2019,07,27,16,17,21.60
2019,07,27,16,18,21.70
2019,07,27,16,19,21.70
2019,07,27,16,20,21.70
2019,07,27,16,21,21.70
2019,07,27,16,22,21.80
2019,07,27,16,23,21.90
2019,07,27,16,24,22.00
2019,07,27,16,25,22.00
2019,07,27,16,26,21.90
2019,07,27,16,27,21.80
2019,07,27,16,28,21.80
2019,07,27,16,29,21.80
2019,07,27,16,30,21.80
2019,07,27,16,31,21.80
2019,07,27,16,32,21.70
2019,07,27,16,33,21.70
2019,07,27,16,34,21.70
2019,07,27,16,35,21.60
2019,07,27,16,36,21.60
2019,07,27,16,37,21.50
2019,07,27,16,38,21.50
2019,07,27,16,39,21.40
2019,07,27,16,40,21.40
2019,07,27,16,41,21.40
2019,07,27,16,42,21.40
2019,07,27,16,43,21.40
2019,07,27,16,44,21.50
2019,07,27,16,45,21.50
2019,07,27,16,46,21.60
2019,07,27,16,47,21.70
2019,07,27,16,48,21.70
2019,07,27,16,49,21.80
2019,07,27,16,50,21.90
2019,07,27,16,51,21.90
2019,07,27,16,52,22.00
2019,07,27,16,53,22.10
2019,07,27,16,54,22.20
2019,07,27,16,55,22.20
2019,07,27,16,56,22.20
2019,07,27,16,57,22.20
2019,07,27,16,58,22.30
2019,07,27,16,59,22.40
2019,07,27,17,00,22.40
2019,07,27,17,01,22.40
2019,07,27,17,02,22.40
2019,07,27,17,03,22.40
2019,07,27,17,04,22.30
2019,07,27,17,05,22.30
2019,07,27,17,06,22.30
2019,07,27,17,07,22.30
2019,07,27,17,08,22.30
2019,07,27,17,09,22.30
2019,07,27,17,10,22.30
2019,07,27,17,11,22.40
2019,07,27,17,12,22.40
2019,07,27,17,13,22.40
2019,07,27,17,14,22.40
2019,07,27,17,15,22.40
2019,07,27,17,16,22.50
2019,07,27,17,17,22.50
2019,07,27,17,18,22.50
2019,07,27,17,19,22.50